GFSWCAN_850_rhum_102.txt.gz
RH
98 99 92 98 99 98 99 100 98 87 76 55 63 85 86 84 81 87 68 64 60 71 75 73 62 54 57 43 47 62 54 57 55 56 52 67 65 61 70 92 82 70 72 68 58 74 86 72 62 88 94 95 96 98
99 92 96 99 98 92 95 96 90 68 58 80 92 82 77 72 67 65 62 51 52 70 76 61 55 50 47 46 51 62 54 60 58 48 48 54 68 74 68 82 77 88 90 84 86 88 84 88 93 100 100 97 99 98
92 97 98 99 82 81 87 79 74 61 65 90 84 74 65 57 58 63 56 52 67 74 62 59 69 54 48 42 45 45 67 69 69 71 62 59 67 55 66 75 74 71 74 78 84 83 80 92 97 100 97 99 97 97
97 99 99 88 83 87 87 79 53 57 75 80 77 68 57 45 53 60 55 50 48 56 66 70 70 59 53 43 37 36 45 62 70 56 55 59 61 61 69 74 62 60 62 70 88 86 85 93 98 100 98 99 96 96
91 95 92 88 95 95 88 83 59 66 63 68 59 52 54 49 56 58 51 47 43 55 65 64 75 64 56 46 44 54 62 55 44 41 50 53 53 65 68 64 70 62 76 74 83 72 85 93 100 98 98 100 99 100
99 94 91 97 99 98 85 75 61 63 60 62 78 76 70 67 62 54 51 50 46 58 59 66 76 82 74 75 71 72 70 66 56 51 48 46 71 66 75 79 77 78 82 77 88 99 100 100 100 99 99 98 100 100
99 93 96 98 100 98 86 73 63 61 55 77 79 74 67 60 53 45 70 55 50 43 62 66 59 79 72 75 76 75 75 69 60 57 48 41 50 64 73 77 75 84 88 97 99 97 99 99 98 98 96 100 100 99
99 95 98 98 98 98 93 79 64 54 48 69 79 67 56 52 49 63 59 47 42 47 66 72 75 66 71 60 65 86 66 66 72 62 63 49 63 62 72 88 82 89 94 95 97 97 88 94 92 94 94 93 91 93
98 94 98 98 96 86 88 80 70 66 58 70 67 60 53 48 59 62 45 37 35 41 67 64 68 79 75 77 82 79 78 75 76 63 56 56 65 73 71 77 88 88 89 96 99 95 90 89 92 91 88 86 87 92
95 97 95 94 89 90 97 88 71 67 69 67 49 42 78 75 58 47 39 38 36 52 74 72 73 79 70 79 76 73 82 64 64 61 72 71 64 80 82 81 84 86 96 99 97 93 89 89 89 89 86 85 87 93
88 79 76 87 91 95 96 88 68 63 59 40 41 100 76 63 58 59 79 67 65 59 64 73 69 71 84 76 71 70 65 68 67 70 65 69 68 75 90 86 83 92 97 96 94 91 89 88 92 96 98 96 97 99
78 77 74 88 86 93 89 69 60 51 48 42 64 68 66 84 73 70 74 72 61 58 73 71 71 72 84 79 63 77 65 76 79 75 77 74 85 96 100 100 100 100 100 100 99 100 100 100 100 96 91 86 83 81
92 73 76 82 93 95 84 63 56 48 57 56 76 79 67 74 76 69 87 82 80 80 84 81 87 83 88 81 90 78 95 87 83 92 76 80 84 99 100 100 100 100 100 99 99 98 98 98 95 86 84 83 82 82
74 76 76 89 90 82 70 65 56 60 65 73 70 83 77 82 80 78 75 81 95 97 84 84 98 87 99 88 84 77 83 82 82 84 85 82 86 98 100 100 99 98 97 97 97 98 97 93 87 86 83 80 78 69
75 77 80 87 86 78 66 61 63 60 75 87 72 86 84 94 97 100 100 99 100 100 91 88 86 77 89 94 75 75 84 82 75 78 85 84 96 100 100 98 92 93 96 96 96 95 90 86 80 80 78 70 36 29
79 82 87 94 83 76 62 60 56 56 78 92 93 90 97 85 95 98 98 99 99 99 88 78 87 83 87 76 82 84 80 73 86 92 97 100 100 100 96 90 87 88 92 94 93 87 82 80 78 72 43 33 35 38
67 86 90 86 80 64 53 50 51 64 96 88 93 100 100 97 96 100 100 100 88 91 83 66 77 82 74 71 75 74 85 95 99 100 100 100 98 93 90 84 83 84 88 88 85 83 81 77 55 37 40 40 41 47
75 92 93 85 69 57 47 51 63 87 92 96 87 100 100 98 99 100 100 86 92 87 71 82 87 83 83 88 80 91 99 100 100 100 100 99 94 92 84 79 80 84 86 84 81 79 70 42 41 50 47 52 59 68
83 94 91 81 64 57 60 67 91 84 97 100 100 95 90 96 99 100 98 96 92 96 89 81 80 78 83 83 97 100 100 100 99 100 94 92 93 88 84 84 81 84 85 80 78 59 45 55 73 69 68 75 97 100
93 89 80 68 53 54 74 88 96 85 83 95 97 92 90 90 82 93 98 99 91 80 75 82 81 82 92 99 89 91 92 88 84 98 100 97 95 93 90 85 85 86 83 82 68 60 68 82 90 89 93 100 100 100
92 84 75 56 63 71 91 87 92 98 95 86 87 82 84 84 86 90 88 94 83 68 70 87 100 83 86 85 83 78 76 78 94 95 94 100 97 100 96 98 92 99 99 88 87 93 96 100 100 100 81 94 76 72
90 79 66 55 60 78 98 100 90 96 89 87 84 86 81 84 84 87 95 89 76 81 91 94 77 76 82 81 80 73 73 77 78 76 77 79 90 100 100 100 100 100 100 100 100 99 100 100 84 86 82 78 75 57
79 68 60 60 63 85 99 82 94 92 85 90 94 89 91 94 92 88 83 85 90 85 78 79 76 78 85 85 80 75 75 79 80 79 76 91 97 100 100 100 100 100 100 100 100 100 100 81 84 84 85 86 70 56
63 62 66 66 82 96 98 96 90 82 91 88 89 91 91 94 100 91 79 72 96 85 91 98 99 94 92 91 89 84 82 82 82 79 77 82 97 100 100 100 100 100 99 82 95 98 83 87 89 94 91 87 75 80
59 80 78 96 100 91 89 84 83 73 84 91 96 90 89 98 85 84 82 75 95 100 100 100 99 100 99 100 96 92 88 86 86 82 75 91 100 100 100 100 100 100 79 81 92 85 88 92 95 94 93 84 74 61
72 88 83 83 93 85 80 88 89 93 82 87 89 91 98 86 87 83 68 91 96 100 100 100 100 98 97 95 98 94 91 90 85 84 78 81 98 100 100 100 100 86 81 98 85 88 93 95 95 92 87 78 65 44
77 90 100 95 95 90 87 90 85 82 92 88 83 92 88 89 84 69 77 72 84 88 99 100 99 100 100 96 96 96 94 92 93 92 80 83 100 100 99 99 100 94 81 87 92 96 94 93 87 81 74 63 40 34
90 96 90 96 98 97 89 88 83 83 79 80 85 91 87 80 82 88 75 72 77 78 81 85 89 93 96 96 92 92 95 96 97 89 84 85 88 88 90 91 88 86 91 98 97 91 73 68 63 61 50 33 34 36
100 100 100 96 97 96 91 82 75 77 76 87 83 82 88 73 63 64 64 62 65 73 77 80 85 88 93 95 93 96 98 94 89 86 98 99 91 94 94 93 94 95 94 78 65 66 61 41 33 26 29 34 32 38
97 100 96 97 95 89 91 89 95 76 76 76 75 75 72 68 65 65 66 66 66 67 72 74 82 86 87 90 91 96 96 93 88 93 97 91 96 89 92 93 92 82 76 79 75 46 23 20 26 31 30 32 41 39
95 100 100 95 92 99 87 86 89 87 86 86 86 90 96 78 75 73 73 73 73 73 75 77 77 83 89 89 90 90 93 92 92 93 95 96 95 96 96 96 96 95 95 85 34 18 21 28 30 27 38 40 35 33
100 96 89 94 95 96 93 99 100 100 97 97 100 91 90 87 96 80 72 71 77 82 84 84 84 84 89 94 94 93 90 90 90 93 92 88 94 96 96 96 96 95 72 22 19 28 30 27 30 40 37 32 32 32
99 98 98 98 96 96 100 100 97 95 99 98 100 97 100 98 88 82 78 75 76 84 92 96 96 98 98 100 100 98 98 97 97 96 94 94 96 96 96 96 91 50 20 21 30 30 25 36 42 34 31 31 32 33

GFSWCAN_850_rhum_108.txt.gz
RH
90 93 86 87 87 90 91 99 95 96 78 88 100 100 97 86 93 99 97 97 100 100 75 96 78 83 56 50 57 51 50 49 50 60 50 52 65 41 64 89 48 49 52 54 48 53 73 63 56 76 88 83 90 89
92 98 97 91 87 87 98 99 100 100 96 100 99 98 99 90 99 99 99 96 95 100 81 72 65 67 68 62 58 43 42 42 43 44 33 39 55 60 60 69 60 84 92 87 89 91 77 81 89 91 95 88 94 94
90 92 86 89 99 100 99 100 97 95 96 95 88 97 91 93 97 93 97 96 91 76 72 70 67 59 46 44 48 40 37 47 53 59 66 51 55 46 64 69 60 57 58 80 79 76 76 81 88 87 90 92 97 100
92 90 97 98 99 99 99 93 90 75 73 76 77 69 73 96 98 95 99 93 94 97 82 62 60 58 52 35 53 61 50 49 47 55 57 61 57 55 75 58 59 46 49 69 88 80 80 78 87 95 99 99 100 100
98 94 92 99 100 99 91 73 61 64 76 92 94 91 94 99 88 97 99 100 99 94 65 60 58 54 52 50 49 50 51 49 43 41 56 61 48 53 52 54 60 52 88 70 84 68 80 84 91 98 99 100 98 93
98 92 99 99 94 94 81 58 58 86 87 86 89 95 94 85 79 99 98 96 90 78 49 63 60 58 56 55 53 52 48 40 32 34 37 44 60 55 66 73 59 59 73 71 82 79 90 92 93 93 97 91 87 88
92 97 99 96 85 80 74 60 89 94 92 90 83 74 60 63 99 83 77 62 63 64 54 62 53 61 59 54 52 50 48 48 38 32 32 33 42 50 62 70 59 69 82 88 91 91 91 91 92 92 91 86 86 84
92 99 97 89 77 51 55 72 82 85 90 76 71 65 72 93 96 72 69 55 59 65 61 59 64 56 65 48 53 57 44 43 46 41 38 33 40 37 68 75 70 82 88 83 85 81 83 82 80 80 82 79 79 79
99 99 97 92 63 60 70 75 81 85 84 73 75 75 72 76 68 58 54 47 48 70 55 56 64 68 64 59 55 51 47 66 45 45 38 37 57 61 63 65 78 85 81 80 82 77 76 71 71 74 73 74 75 79
100 99 96 83 65 64 64 73 82 75 68 68 69 72 76 72 53 41 39 60 57 52 54 58 58 70 57 57 56 52 48 50 59 47 49 54 65 57 58 67 72 79 83 81 77 75 72 70 70 70 71 72 75 80
98 99 95 85 68 66 62 78 80 69 61 67 86 90 72 44 58 54 60 56 51 51 45 51 52 61 54 68 60 46 51 49 51 61 50 62 57 62 63 72 74 76 81 82 75 75 75 73 73 73 74 75 80 84
99 98 99 91 81 63 62 59 73 68 70 66 74 76 67 67 62 65 62 51 51 46 52 58 51 52 53 49 55 49 47 52 64 55 57 55 79 75 82 88 93 86 84 84 86 83 82 80 78 78 80 85 86 87
95 93 93 82 73 73 70 73 71 55 62 66 61 62 57 58 79 70 76 57 69 64 68 59 78 63 54 66 68 59 82 74 58 73 65 84 81 96 99 99 100 98 94 96 89 91 90 89 86 85 88 88 87 87
92 93 94 84 78 77 70 61 62 76 72 57 63 85 82 80 66 81 88 86 81 68 64 74 86 80 69 86 70 75 79 66 73 71 87 81 91 100 99 100 95 98 98 97 99 95 89 87 89 89 89 83 76 74
94 99 96 91 72 59 61 61 68 84 77 70 64 80 80 85 90 97 94 87 93 79 70 71 74 64 71 80 72 67 74 72 64 95 92 88 98 98 99 99 97 94 93 96 96 93 90 89 91 86 81 78 74 65
98 97 91 65 57 56 58 66 76 82 76 80 85 81 83 85 96 99 94 97 92 78 69 63 79 79 78 67 69 67 66 74 96 92 100 99 96 97 97 93 100 99 98 97 96 96 95 95 89 80 80 78 68 33
90 84 71 60 60 65 75 75 77 74 77 78 92 98 99 96 99 99 90 85 85 80 94 54 72 64 57 58 61 61 87 95 91 96 95 96 95 99 98 97 96 96 96 96 96 97 97 93 82 80 77 56 33 36
79 75 68 62 68 68 81 73 72 67 83 97 85 96 99 94 93 95 95 100 85 61 58 71 63 67 71 64 85 95 97 100 97 100 98 98 98 98 96 96 96 96 96 98 96 95 88 83 82 72 41 40 37 33
82 71 58 66 75 69 70 75 75 72 90 89 90 90 93 92 96 98 98 96 80 70 64 62 71 70 83 96 96 98 99 96 99 100 100 100 100 100 97 92 97 100 100 100 100 95 83 77 71 66 63 60 70 62
59 54 50 52 71 58 69 78 78 74 86 88 88 88 93 95 81 83 90 81 77 72 59 59 84 97 99 99 93 94 98 96 99 100 100 100 100 100 96 92 100 100 100 100 100 88 71 73 75 74 68 86 90 93
58 55 63 84 72 70 71 77 87 79 79 89 86 88 82 83 83 88 88 70 78 60 60 82 83 94 94 99 98 98 98 93 92 88 99 100 100 100 100 100 100 100 99 96 83 72 74 78 81 84 90 96 100 92
61 61 78 62 76 76 82 86 80 79 77 74 77 81 87 86 87 92 79 76 70 74 74 76 82 87 87 97 89 98 93 96 91 90 93 99 100 100 99 97 98 95 94 89 80 78 87 89 92 92 94 98 98 89
65 71 75 70 80 81 86 88 79 76 75 74 75 69 73 75 83 75 71 71 79 77 82 84 89 94 94 93 82 83 82 90 93 98 100 98 98 97 98 95 94 92 93 92 94 88 98 98 96 97 98 98 99 90
46 56 65 90 79 85 88 76 67 69 69 66 65 69 73 76 84 72 69 67 98 99 97 99 96 94 100 95 97 89 85 96 95 100 99 96 96 95 96 94 94 92 92 93 96 94 97 97 95 97 100 97 97 96
66 75 92 84 82 73 70 67 72 59 72 70 74 68 76 81 74 67 67 90 83 92 99 98 99 97 93 89 92 94 93 97 96 98 97 98 93 96 94 94 93 91 95 95 94 95 97 96 97 99 99 96 94 100
70 89 76 71 76 66 61 67 67 72 66 72 72 77 79 74 73 74 71 93 94 99 100 98 96 97 96 95 97 93 99 98 99 94 95 97 92 91 92 93 93 96 97 95 95 96 95 98 99 98 98 98 98 100
67 76 72 84 65 59 68 69 60 63 70 70 67 76 74 76 74 79 92 100 96 98 100 98 96 94 97 91 94 93 98 97 99 98 96 97 94 96 94 90 93 95 92 93 96 93 97 99 97 100 99 98 95 96
70 72 76 79 73 70 76 71 73 70 65 55 63 71 71 72 92 99 100 84 68 73 83 96 100 98 96 97 100 97 95 94 97 94 94 95 95 97 96 95 95 91 94 97 98 95 98 98 100 100 94 88 94 92
80 84 79 76 82 80 77 76 73 69 77 71 79 80 77 89 94 92 76 76 79 68 72 78 80 89 97 98 97 93 90 92 95 100 100 100 100 100 98 98 100 100 97 99 98 97 96 97 100 96 82 67 47 36
78 92 77 72 76 73 89 99 100 96 83 89 87 80 78 83 68 67 67 67 70 76 89 97 83 78 78 85 91 93 96 100 100 98 98 96 99 96 100 100 98 99 99 97 94 94 94 93 82 67 52 35 29 28
96 97 81 69 68 96 99 95 86 83 80 98 91 96 98 96 94 77 75 86 95 100 100 100 97 96 99 100 95 95 100 99 100 98 96 95 93 91 91 92 92 90 91 95 96 92 75 67 55 39 28 28 28 32
98 87 72 69 82 100 83 100 99 98 96 100 91 100 100 100 95 98 91 79 90 100 100 100 100 100 100 100 100 100 98 89 90 91 92 94 92 92 90 91 90 94 94 79 72 72 62 37 23 26 27 29 32 26
95 94 96 90 83 87 98 99 87 84 92 89 92 93 94 98 97 96 96 88 90 100 100 100 100 99 100 100 100 100 100 94 89 89 89 89 90 90 91 95 96 96 94 94 89 43 21 22 26 25 30 31 26 24

GFSWCAN_850_rhum_111.txt.gz
RH
91 80 99 95 86 85 92 96 99 98 95 92 91 87 96 100 100 99 86 100 99 100 99 100 96 99 99 92 96 60 65 60 67 80 81 88 98 76 76 81 56 67 76 82 75 84 97 79 70 81 92 89 86 93
70 77 95 94 99 93 87 83 81 78 82 94 93 96 99 99 96 95 96 100 100 98 100 99 99 100 96 84 58 54 55 53 55 69 60 58 83 86 81 95 66 83 87 96 95 99 83 85 89 83 82 91 90 90
56 93 91 89 93 92 80 88 76 94 74 70 80 98 99 93 89 97 99 98 98 99 98 90 83 60 61 61 54 47 48 47 54 55 85 77 65 72 88 91 82 75 72 93 92 83 82 87 90 85 86 88 92 94
59 95 92 92 91 98 99 100 95 95 68 88 100 100 97 96 92 100 96 99 100 99 98 63 59 55 30 47 46 43 43 41 45 52 74 90 88 75 85 78 81 68 70 85 96 85 83 90 92 88 93 94 97 98
84 98 93 93 99 99 99 98 99 99 98 92 92 95 90 94 99 99 100 99 100 98 81 62 54 52 49 46 42 35 32 38 43 57 79 85 64 75 74 81 90 73 83 91 93 82 80 95 88 98 98 98 93 97
91 99 98 99 99 91 76 78 80 80 78 81 74 68 91 99 99 99 99 99 79 85 55 88 60 56 55 52 49 48 45 43 42 45 58 60 59 66 92 98 75 76 74 68 86 80 79 87 91 97 97 92 94 94
97 94 99 99 87 69 62 82 88 89 91 93 88 96 99 98 97 96 94 84 77 75 56 83 69 62 58 54 52 49 47 47 46 33 47 56 56 57 92 95 83 92 85 84 81 83 95 95 98 93 91 93 93 91
93 99 98 94 68 61 87 88 90 93 88 87 89 83 85 96 98 73 70 64 71 65 58 88 87 71 62 58 55 55 46 44 43 44 39 62 45 53 95 89 85 92 87 77 75 80 87 90 92 92 90 88 87 88
98 99 90 73 66 80 88 86 94 76 70 68 75 87 96 98 85 61 63 59 57 62 70 75 90 91 61 60 52 49 50 87 45 73 62 54 90 84 85 86 87 83 82 78 86 85 86 88 87 87 82 82 82 83
99 93 58 57 67 77 81 78 78 78 79 83 86 85 99 90 54 52 42 44 52 48 56 82 61 91 66 60 67 64 54 84 86 75 51 90 94 64 68 75 77 76 77 79 81 82 78 78 80 78 78 78 81 83
99 92 60 64 72 82 84 75 78 81 78 93 93 88 66 51 61 54 53 67 57 71 55 62 57 82 58 87 90 56 84 80 81 86 82 91 94 82 70 76 73 75 77 84 74 74 74 73 72 73 74 77 80 82
97 81 66 65 77 91 82 73 71 76 72 72 58 56 64 68 60 74 88 71 72 64 57 77 63 57 54 53 76 61 72 81 80 76 84 86 94 74 72 78 79 78 80 84 79 75 73 75 73 74 84 80 81 81
98 89 88 66 71 75 82 68 66 54 58 59 60 64 61 66 86 82 93 80 91 76 64 59 83 56 60 60 80 89 83 91 73 84 89 100 98 91 83 80 85 91 92 95 84 82 82 86 91 95 89 80 81 83
96 97 86 68 65 71 70 60 57 74 66 60 69 90 90 93 93 100 99 99 79 70 70 70 80 87 75 91 94 78 93 90 88 89 94 99 100 100 98 97 91 98 99 99 96 90 86 89 95 96 95 82 82 81
82 84 84 86 75 62 59 76 82 78 73 73 71 95 95 93 94 90 84 90 85 74 59 77 80 65 92 85 80 82 85 81 87 98 100 100 100 99 100 98 94 96 99 98 96 92 90 90 91 92 89 83 80 74
94 95 79 82 77 68 58 68 71 74 76 79 90 87 82 90 96 95 98 94 81 66 60 61 89 90 88 86 86 81 86 95 98 100 100 100 100 98 98 98 96 93 88 97 98 98 96 93 93 87 82 77 75 63
78 70 64 63 76 74 66 70 71 74 80 82 98 100 99 95 97 98 100 99 86 75 97 87 77 75 86 84 82 92 98 98 93 96 92 88 87 98 98 98 98 98 95 98 97 97 97 96 96 91 78 78 59 34
66 60 59 63 80 79 75 74 68 75 95 98 95 99 100 96 96 92 87 90 88 69 71 81 63 76 84 80 98 98 100 94 90 92 92 92 95 94 97 95 97 96 96 96 97 96 96 96 93 84 77 60 36 38
63 62 62 74 69 68 73 73 70 84 96 96 96 81 81 86 90 94 95 84 75 69 65 62 78 92 99 100 99 99 93 92 96 98 95 96 95 95 95 97 96 96 96 96 96 95 95 90 81 75 54 38 36 34
50 49 63 70 62 63 75 75 76 83 90 90 85 86 88 88 74 85 84 78 69 66 68 80 100 100 99 96 86 92 94 93 98 98 100 99 100 100 98 97 99 100 100 100 98 94 83 78 70 52 44 43 37 50
60 66 56 59 60 69 88 87 85 80 83 90 86 85 85 73 68 72 66 64 74 74 98 88 82 96 99 95 97 99 96 93 96 86 100 100 100 100 97 100 100 100 100 99 93 77 76 76 72 62 68 87 86 93
66 58 45 55 74 77 79 76 76 81 88 79 90 87 84 79 71 75 73 66 62 89 78 76 80 90 93 97 99 98 96 94 92 92 93 98 100 100 100 100 98 99 99 98 84 72 82 76 74 77 93 100 100 91
64 56 58 73 77 75 83 92 77 92 86 79 77 78 76 76 79 74 69 71 77 77 81 80 83 89 91 89 91 95 95 96 94 93 96 94 98 98 96 95 95 95 96 94 75 77 83 82 84 83 94 98 98 97
41 44 64 82 78 87 80 70 67 69 67 80 81 78 74 73 81 70 87 95 94 94 91 94 93 96 99 96 87 85 92 93 93 99 99 95 95 94 94 92 93 97 91 89 86 85 96 93 92 93 94 96 90 82
53 67 81 90 80 80 80 80 84 80 86 73 79 89 80 78 83 77 75 99 79 87 93 99 98 94 90 88 89 88 96 97 94 97 96 95 92 93 93 92 90 95 98 96 98 97 98 97 97 98 97 94 85 80
92 75 82 74 83 77 78 81 78 82 84 82 89 86 75 72 68 76 96 95 91 94 97 96 96 93 94 97 94 85 92 95 93 93 96 92 90 88 89 92 97 99 98 95 93 96 97 96 94 96 95 94 96 94
82 84 74 77 71 63 77 68 64 81 79 82 91 77 71 92 87 99 93 98 92 98 98 99 94 93 93 93 92 88 91 93 98 96 91 96 99 98 92 87 89 89 97 99 97 94 94 94 95 94 95 100 98 95
70 71 88 79 70 68 86 85 82 81 80 61 71 80 79 86 98 97 98 74 70 82 100 100 100 95 92 92 94 96 97 97 98 98 96 96 97 96 98 98 95 93 94 97 97 97 96 95 92 93 95 97 98 98
77 84 75 71 75 79 77 86 86 83 86 71 88 91 91 98 98 98 94 88 76 75 83 83 91 100 100 100 100 96 96 96 98 98 97 96 100 100 99 98 94 95 97 97 98 96 94 94 95 96 96 96 90 72
88 80 80 76 80 88 98 99 98 96 84 93 85 83 86 92 85 84 83 74 77 99 100 99 87 81 86 95 98 94 96 100 98 97 96 91 95 99 100 97 97 94 94 98 96 97 97 96 96 99 97 88 71 52
83 85 78 70 77 96 100 90 91 86 82 100 90 96 98 96 100 97 95 100 100 100 100 99 100 100 100 99 93 95 100 100 100 98 98 100 93 91 96 97 95 94 95 96 95 95 95 96 97 92 81 60 37 29
90 84 77 84 97 97 98 98 95 93 89 97 92 99 99 99 96 100 100 99 100 98 100 100 100 99 99 100 100 100 97 96 96 93 92 96 94 92 90 90 95 98 97 97 97 97 98 92 78 66 43 27 26 28
88 89 88 93 90 88 91 96 83 80 80 82 86 84 88 88 97 100 100 100 100 100 100 100 100 99 99 99 100 100 100 100 98 94 89 92 91 86 84 88 94 96 96 97 96 91 87 74 46 26 26 26 30 27

GFSWCAN_850_rhum_114.txt.gz
RH
85 74 67 91 99 96 91 81 81 78 69 66 68 70 73 78 94 99 99 99 98 100 99 97 99 96 98 92 95 99 91 83 77 80 88 94 95 84 80 77 58 62 69 80 78 92 92 81 70 77 89 92 92 87
74 48 54 98 98 99 98 97 98 97 84 83 81 75 91 89 96 99 100 99 99 88 99 96 97 100 98 80 68 74 66 66 59 74 74 79 99 98 83 89 72 77 78 90 93 91 91 90 95 88 76 89 97 88
41 52 74 93 93 90 88 87 87 82 92 83 75 91 99 95 99 99 98 99 100 100 97 99 99 99 96 77 68 54 56 50 56 54 84 82 71 82 90 93 85 83 75 96 90 91 90 99 92 87 80 84 85 84
51 61 92 90 85 82 72 72 64 69 79 76 85 96 97 99 100 98 85 98 100 97 97 94 94 87 96 77 66 47 40 46 51 53 84 90 87 75 88 82 86 78 74 91 96 92 90 99 95 92 88 85 91 94
55 90 95 88 94 95 95 92 72 72 76 85 90 96 99 99 97 90 98 99 100 92 88 66 56 53 55 50 44 44 40 39 44 60 83 89 76 84 84 84 93 80 89 91 92 82 79 94 93 88 88 92 98 94
90 92 91 98 99 99 96 93 87 76 72 69 97 99 93 96 99 99 99 98 97 77 62 90 60 57 54 44 42 40 38 44 43 50 74 68 63 67 95 99 86 84 68 64 88 80 75 92 87 90 92 90 91 93
96 98 99 98 98 97 98 100 100 100 100 99 92 90 92 94 97 96 96 91 82 90 65 85 73 60 56 53 51 47 47 47 38 44 58 67 59 65 95 97 98 90 78 74 77 81 100 91 99 96 96 93 99 94
99 99 97 70 75 78 77 78 82 85 86 83 87 94 99 100 93 90 74 79 77 79 68 92 89 66 60 58 56 53 47 45 47 48 52 65 50 73 96 98 97 91 85 82 81 78 84 92 91 96 95 98 93 93
99 95 66 72 82 88 93 97 96 95 95 98 99 99 99 99 97 77 73 77 74 74 75 80 88 85 63 64 55 49 52 85 55 77 66 63 93 84 90 98 96 89 81 88 80 86 87 93 97 98 94 90 93 95
98 75 72 92 95 92 83 81 91 94 96 97 97 99 98 80 65 69 50 50 57 53 62 83 68 85 66 72 75 65 64 85 84 75 57 90 95 82 83 83 82 80 77 73 93 96 94 97 95 94 90 89 88 91
68 68 83 84 88 88 85 82 82 96 99 96 89 91 64 60 54 50 57 60 65 72 68 69 62 83 63 84 89 65 84 86 84 84 81 94 96 92 85 78 79 75 76 76 76 85 86 85 88 85 85 84 84 86
65 72 79 87 89 86 87 91 93 82 91 91 64 57 67 68 64 73 90 74 71 69 71 77 63 60 67 55 75 76 75 83 84 86 83 94 96 86 80 78 76 74 80 82 77 80 79 79 80 81 80 81 81 82
67 77 86 89 82 89 87 88 83 70 76 82 68 66 57 73 85 75 88 82 89 83 68 65 86 61 60 56 82 86 86 93 83 92 89 86 99 88 80 79 80 80 88 83 77 75 76 76 78 87 95 93 81 80
68 74 81 81 77 86 73 61 71 69 62 57 65 87 81 92 98 97 98 98 89 82 63 65 85 90 78 90 97 87 93 87 95 93 90 94 100 92 84 84 83 89 94 87 79 75 80 92 96 97 97 96 95 82
84 72 71 75 70 66 59 61 69 58 65 70 74 99 99 99 100 100 99 97 80 62 55 73 76 69 95 85 90 86 87 91 88 94 96 98 99 96 93 94 91 94 98 95 89 87 91 96 97 96 97 96 96 86
73 72 70 64 62 74 74 70 54 62 72 77 93 91 94 88 93 98 100 94 76 59 55 63 92 92 91 88 85 88 89 94 94 100 100 100 98 100 100 98 94 95 98 97 97 97 97 97 96 96 96 96 96 91
80 84 75 69 60 62 56 50 64 76 81 87 98 100 94 94 99 99 100 93 77 61 92 89 80 78 90 90 84 91 95 83 98 98 96 84 89 98 97 97 96 97 98 98 97 98 97 96 97 96 95 95 87 71
66 76 77 72 70 55 57 70 72 79 96 98 97 100 99 98 97 99 92 80 72 73 72 80 73 80 93 88 92 98 95 88 85 87 89 90 93 98 98 98 98 98 98 98 97 96 97 96 96 96 96 92 68 40
61 74 78 70 60 68 71 74 70 96 99 98 95 87 90 90 91 96 82 74 69 67 61 62 87 99 95 96 99 81 87 88 95 95 90 90 93 95 98 99 98 97 97 97 96 96 96 96 96 96 95 86 41 39
63 72 69 62 54 64 71 69 75 83 96 94 84 82 83 82 90 88 73 63 60 66 75 93 96 99 85 86 78 84 89 93 92 94 96 94 96 96 97 95 94 95 97 96 96 96 97 97 97 91 78 55 38 33
63 55 56 54 60 76 86 82 80 83 81 88 84 76 78 70 70 69 66 64 69 94 98 99 98 99 98 87 93 94 96 97 97 94 95 97 99 100 99 97 95 93 93 94 95 98 97 88 81 74 52 41 37 38
57 50 50 53 66 74 76 74 79 84 85 94 93 84 86 79 76 77 69 64 81 97 86 76 78 95 99 97 98 96 91 91 92 93 95 96 100 100 99 94 93 91 91 92 93 92 82 74 68 53 56 64 64 82
44 40 64 70 70 73 91 88 83 91 90 86 80 83 89 84 81 73 70 70 90 82 72 77 79 95 98 97 98 98 98 96 96 95 96 94 97 97 94 95 96 93 94 93 92 77 77 77 72 68 82 92 95 100
39 44 61 80 75 89 74 69 67 68 70 90 90 86 76 74 79 70 94 93 93 90 88 85 85 90 90 94 97 99 97 95 91 98 99 95 96 95 93 94 93 94 89 89 83 77 85 79 78 77 97 100 100 98
39 75 75 85 84 82 87 87 90 81 94 85 85 98 82 79 92 83 84 97 84 86 93 99 93 89 87 85 84 86 91 95 92 93 94 94 94 97 96 95 92 92 95 93 80 83 89 85 89 94 96 98 97 96
97 77 80 85 85 81 86 86 87 88 91 91 98 83 73 73 76 81 97 94 85 91 94 97 94 93 88 87 93 96 83 87 94 88 89 88 91 89 89 93 95 98 98 95 88 89 94 96 95 96 96 97 96 90
89 89 78 78 74 67 79 74 74 84 88 92 98 83 94 97 96 96 90 98 94 99 98 99 96 91 87 88 91 95 93 92 91 95 92 91 96 96 93 92 89 88 95 97 97 94 92 96 96 96 96 96 95 86
75 74 87 76 72 74 94 94 88 86 87 81 78 90 87 92 97 100 95 93 94 100 100 99 100 95 90 88 89 91 93 94 95 99 98 98 97 98 94 94 99 98 95 95 94 96 96 96 95 95 95 95 95 96
75 83 71 77 75 77 83 94 94 100 99 89 90 96 99 98 96 98 100 85 72 83 87 90 97 100 100 99 100 100 100 100 100 98 95 95 96 97 97 98 94 93 94 97 98 98 97 96 96 96 96 95 97 100
89 80 81 83 91 94 95 97 95 99 94 98 94 92 99 97 99 100 100 100 100 100 100 98 98 98 100 100 100 94 92 98 100 97 97 90 93 95 99 96 95 95 96 98 97 97 97 96 96 98 97 96 99 99
83 81 82 80 82 91 99 100 100 99 99 100 99 95 97 100 98 98 100 100 100 100 99 100 100 100 100 100 100 100 95 93 93 94 92 98 96 88 92 95 97 95 91 92 94 94 94 95 96 96 96 97 95 84
85 76 75 89 97 99 100 99 94 89 88 91 91 99 96 100 96 99 100 100 100 100 100 100 100 100 100 100 99 100 100 97 98 100 98 98 96 90 92 94 97 98 97 97 97 97 96 96 96 96 95 88 71 46
80 87 94 97 98 95 95 97 87 79 81 77 79 81 85 80 81 96 100 100 100 100 100 99 100 100 99 99 98 99 98 100 95 96 94 95 98 96 94 96 98 98 97 97 98 98 97 96 96 90 78 55 32 29